カタログに戻る

STARLINK-2473

運用中通信VLEO
NORAD 48131·PAYLOAD·🇺🇸 United States

打ち上げ Apr 7, 2021 から Cape Canaveral Space Force Station

Loading…

次のパス (今後24時間)

TLE

最新Source: CelesTrak SupGP

元期: Sep 14, 2026, 19:55 UTC

1 48131C 21027AR  26257.83034722 -.00004895  00000+0 -15749-3 0  2573
2 48131  53.1601 352.6338 0001196  80.2292 118.5060 15.31687261    17

AllMySatでSTARLINK-2473をリアルタイム追跡

Download on the App Store